Weather in Vilovatoye

Russia / Samara Oblast     53°01′44″N   51°26′48″E
temp.,
°C
wind,
m/s
gust,
m/s
humid.,
%
clouds,
%
prec.,
mm/h
press.,
hPa
HPBL,
m
27 september, mon
mon2701:00+11e3870100 0.0 1004296
04:00+10e41080100 0.6 1003377
07:00+10ene3783100 0.6 1003273
10:00+13e686495 0.9 1004769
13:00+12e7964100 0.0 1006929
16:00+13ene6841100 0.0 10071524
19:00+10ne81346100 0.0 1010525
22:00+6ene61162100 0.0 1013644
28 september, tue
tue2801:00+5ne61078100 0.0 1015938
04:00+5ne61074100 0.1 1016889
07:00+5ne71070100 0.0 10181065
10:00+6ne7106175 0.0 10201253
13:00+8ne7949100 0.0 10201610
16:00+10ne694299 0.0 10211857
19:00+6nne475147 0.0 1023132
22:00+5nne51052100 0.0 1025327
29 september, wed
wed2901:00+4nne4960100 0.0 1025314
04:00+4nne4963100 0.0 1026323
07:00+3nne396798 0.0 1027278
10:00+7ne685230 0.0 10281037
13:00+9ne673970 0.0 10281856
16:00+10nne673464 0.0 10281994
19:00+6nne474718 0.0 1029122
22:00+4nne395365 0.0 1030168
30 september, thu
thu3001:00+3ne33615 0.0 103039
04:00+2nne22675 0.0 103118
07:00+1nne22715 0.0 103217
10:00+7nne344830 0.0 1033588
13:00+10n34385 0.0 10321573
16:00+11nnw343542 0.0 10311736
19:00+7nnw3348100 0.0 103225
22:00+6nw225796 0.0 103213
1 october, fri
fri101:00+7wnw2458100 0.0 1032108
04:00+5nw33816 0.0 103155
07:00+6wsw2377100 0.0 1031104
10:00+8wsw3470100 0.0 1031255
13:00+13w345497 0.0 10301338
16:00+12nw4459100 0.0 1030749
19:00+10nw2373100 0.0 103176
22:00+10w2276100 0.0 103154